Weather History for London, United Kingdom

Change the Weather History Date:

Monday, July 22, 2013

  Actual Average Record
Temperature  
Mean Temperature 78 °F -  
Max Temperature 92 °F 72 °F 92 °F (2013)
Min Temperature 63 °F 56 °F 51 °F (1999)
Cooling Degree Days 12    
Growing Degree Days 28 (Base 50)    
Moisture  
Dew Point 61 °F    
Average Humidity 61    
Maximum Humidity 88    
Minimum Humidity 26    
Precipitation  
Precipitation 0.00 in - - ()
Sea Level Pressure  
Sea Level Pressure 30.00 in    
Wind  
Wind Speed 6 mph ()    
Max Wind Speed 14 mph    
Max Gust Speed 24 mph    
Visibility 5.8 miles    
Events Rain , Thunderstorm    
Averages and records for this station are not official NWS values.
T = Trace of Precipitation, MM = Missing Value Source: Averaged Metar Reports

Daily Weather History Graph

Daily Weather History Graph

Search for Another Location

Airport:

Trip Planner

Search our weather history database for the weather conditions in past years. The results will help you decide how hot, cold, wet, or windy it might be!

Date:

Astronomy

Jul. 22, 2013 Rise Set
Actual Time 5:11 AM BST 9:04 PM BST
Civil Twilight 4:28 AM BST 9:47 PM BST
Nautical Twilight 3:28 AM BST 10:46 PM BST
Astronomical Twilight 1:35 AM BST 12:32 AM BST
Moon 8:27 PM BST (7/22) 4:56 AM BST (7/22)
Length of Visible Light 17h 18m
Length of Day
15h 52m
Full, 100% of the Moon is Illuminated
Jul 22
Full
Jul 22
Full
Jul 29
Last Quarter
Aug 6
New
Aug 14
First Quarter

Hourly Weather History & Observations

Time (BST) Temp. Heat Index Dew Point Humidity Pressure Visibility Wind Dir Wind Speed Gust Speed Precip Events Conditions
12:20 AM 68.0 °F - 60.8 °F 78% 30.06 in 5.6 mi ENE 4.6 mph - N/A   Unknown
12:50 AM 68 °F - 60 °F 69% 30.06 in 5 mi ENE 4.6 mph - -   Light Haze
12:50 AM 68.0 °F - 60.8 °F 78% 30.06 in 5.6 mi ENE 4.6 mph - N/A   Unknown
1:20 AM 68.0 °F - 60.8 °F 78% 30.06 in 3.7 mi ENE 4.6 mph - N/A   Unknown
1:50 AM 66.2 °F - 60.8 °F 83% 30.06 in 3.7 mi Calm Calm - N/A   Unknown
2:20 AM 66.2 °F - 60.8 °F 83% 30.06 in 3.1 mi Variable 2.3 mph - N/A   Unknown
2:50 AM 66.2 °F - 60.8 °F 83% 30.04 in 4.3 mi ENE 5.8 mph - N/A   Unknown
3:20 AM 64.4 °F - 60.8 °F 88% 30.04 in 4.3 mi NE 5.8 mph - N/A   Unknown
3:50 AM 65 °F - 60 °F 78% 30.03 in 4 mi NE 6.9 mph - -   Light Haze
3:50 AM 66.2 °F - 60.8 °F 83% 30.04 in 4.3 mi NE 5.8 mph - N/A   Unknown
4:20 AM 64.4 °F - 60.8 °F 88% 30.01 in 3.7 mi NE 8.1 mph - N/A   Unknown
4:50 AM 64.4 °F - 60.8 °F 88% 30.01 in 3.7 mi Variable 3.5 mph - N/A   Unknown
5:20 AM 64.4 °F - 60.8 °F 88% 30.01 in 4.3 mi Variable 3.5 mph - N/A   Unknown
5:50 AM 64.4 °F - 60.8 °F 88% 30.01 in 4.3 mi ENE 4.6 mph - N/A   Unknown
6:20 AM 64.4 °F - 60.8 °F 88% 30.01 in 4.3 mi NE 5.8 mph - N/A Rain , Thunderstorm Light Rain Showers
6:50 AM 63 °F - 60 °F 85% 30.03 in 4 mi NE 3.5 mph - - Rain Rain
6:50 AM 64.4 °F - 60.8 °F 88% 30.04 in 4.3 mi Variable 2.3 mph - N/A Thunderstorm Thunderstorm
7:20 AM 64.4 °F - 60.8 °F 88% 30.04 in 4.3 mi Variable 2.3 mph - N/A   Unknown
7:50 AM 66.2 °F - 60.8 °F 83% 30.04 in 4.3 mi Variable 3.5 mph - N/A   Unknown
8:20 AM 68.0 °F - 62.6 °F 83% 30.04 in 5.0 mi ENE 5.8 mph - N/A   Unknown
8:50 AM 69.8 °F - 62.6 °F 78% 30.04 in 5.0 mi ENE 6.9 mph - N/A   Unknown
9:20 AM 71.6 °F - 62.6 °F 73% 30.04 in 5.0 mi East 6.9 mph - N/A   Unknown
9:50 AM 72 °F - 62 °F 64% 30.03 in 6 mi East 5.8 mph - -  
9:50 AM 73.4 °F - 64.4 °F 73% 30.04 in - East 6.9 mph - N/A   Clear
10:20 AM 75.2 °F - 64.4 °F 69% 30.01 in - East 8.1 mph - N/A   Clear
10:50 AM 78.8 °F - 64.4 °F 61% 30.01 in - ESE 5.8 mph - N/A   Clear
11:20 AM 80.6 °F 82.3 °F 64.4 °F 58% 30.01 in - East 4.6 mph - N/A   Clear
11:50 AM 82.4 °F 83.9 °F 64.4 °F 54% 30.01 in - SSE 5.8 mph - N/A   Clear
12:20 PM 86.0 °F 86.6 °F 62.6 °F 45% 30.01 in - SE 5.8 mph - N/A   Clear
12:50 PM 88 °F - 62 °F 32% 29.99 in 14 mi South 5.8 mph - -  
12:50 PM 86.0 °F 86.6 °F 62.6 °F 45% 30.01 in - SSE 6.9 mph - N/A   Clear
1:20 PM 87.8 °F 88.5 °F 62.6 °F 43% 29.98 in - SE 8.1 mph - N/A   Clear
1:50 PM 89.6 °F 89.5 °F 60.8 °F 38% 29.98 in - SE 10.4 mph - N/A   Clear
2:20 PM 89.6 °F 88.1 °F 57.2 °F 33% 29.98 in - SSE 10.4 mph - N/A   Clear
2:50 PM 91.4 °F 89.9 °F 57.2 °F 31% 29.98 in - South 10.4 mph - N/A   Clear
3:20 PM 91.4 °F 89.9 °F 57.2 °F 31% 29.98 in - South 13.8 mph - N/A   Clear
3:50 PM 89 °F - 58 °F 26% 29.96 in 17 mi South 11.5 mph - -   Scattered Clouds
3:50 PM 89.6 °F 88.1 °F 57.2 °F 33% 29.98 in - South 11.5 mph - N/A   Clear
4:20 PM 89.6 °F 88.9 °F 59.0 °F 36% 29.95 in - SSW 12.7 mph - N/A   Clear
4:50 PM 91.4 °F 89.9 °F 57.2 °F 31% 29.95 in - South 10.4 mph 24.2 mph N/A   Clear
5:20 PM 89.6 °F 87.7 °F 55.4 °F 31% 29.95 in - SSW 11.5 mph - N/A   Clear
5:50 PM 87.8 °F 86.5 °F 57.2 °F 35% 29.95 in - SSW 10.4 mph - N/A   Clear
6:20 PM 87.8 °F 86.5 °F 57.2 °F 35% 29.95 in - South 10.4 mph - N/A   Clear
6:50 PM 86 °F - 58 °F 29% 29.95 in 17 mi South 11.5 mph - -   Scattered Clouds
6:50 PM 86.0 °F 85.4 °F 59.0 °F 40% 29.95 in - SSW 11.5 mph - N/A   Clear
7:20 PM 84.2 °F 83.8 °F 59.0 °F 42% 29.95 in - SSW 11.5 mph - N/A   Clear
7:50 PM 82.4 °F 82.5 °F 59.0 °F 45% 29.95 in - SSW 11.5 mph - N/A   Clear
8:20 PM 80.6 °F 81.1 °F 59.0 °F 48% 29.98 in 6.2 mi SSW 9.2 mph - N/A   Partly Cloudy
8:50 PM 78.8 °F - 60.8 °F 54% 29.98 in 6.2 mi SSW 8.1 mph - N/A   Partly Cloudy
9:20 PM 78.8 °F - 60.8 °F 54% 29.98 in 6.2 mi SSW 9.2 mph - N/A   Partly Cloudy
9:50 PM 77.0 °F - 60.8 °F 57% 29.98 in - SSW 9.2 mph - N/A   Clear
10:20 PM 77.0 °F - 60.8 °F 57% 29.98 in - SSW 6.9 mph - N/A   Clear
10:50 PM 77.0 °F - 60.8 °F 57% 29.98 in - SW 8.1 mph - N/A   Clear
11:20 PM 75.2 °F - 62.6 °F 65% 29.95 in - SSW 5.8 mph - N/A   Clear
11:50 PM 73.4 °F - 62.6 °F 69% 29.95 in - South 4.6 mph - N/A   Clear